Time,TemperatureF,DewpointF,PressureIn,WindDirection,WindDirectionDegrees,WindSpeedMPH,WindSpeedGustMPH,Humidity,HourlyPrecipIn,Conditions,Clouds,dailyrainin,SoftwareType,DateUTC
2013-02-19 00:03:00,63.0,-99.9,30.02,South,169,32.0,36.0,-999,-99.99,,,-99.99,,2013-02-19 06:03:00,
2013-02-19 00:12:00,63.0,-99.9,30.02,South,172,33.0,42.0,-999,-99.99,,,-99.99,,2013-02-19 06:12:00,
2013-02-19 00:22:00,63.0,-99.9,30.02,South,175,32.0,39.0,-999,-99.99,,,-99.99,,2013-02-19 06:22:00,
2013-02-19 00:33:00,63.0,-99.9,30.02,South,175,32.0,38.0,-999,-99.99,,,-99.99,,2013-02-19 06:33:00,
2013-02-19 00:42:00,63.0,-99.9,30.02,South,175,33.0,37.0,-999,-99.99,,,-99.99,,2013-02-19 06:42:00,
2013-02-19 00:53:00,64.0,-99.9,30.01,South,178,34.0,38.0,-999,-99.99,,,-99.99,,2013-02-19 06:53:00,
2013-02-19 01:02:00,64.0,-99.9,30.01,South,177,34.0,38.0,-999,-99.99,,,-99.99,,2013-02-19 07:02:00,
2013-02-19 01:12:00,64.0,-99.9,30.01,South,177,31.0,35.0,-999,-99.99,,,-99.99,,2013-02-19 07:12:00,
2013-02-19 01:22:00,64.0,-99.9,30.01,South,179,31.0,35.0,-999,-99.99,,,-99.99,,2013-02-19 07:22:00,
2013-02-19 01:32:00,64.0,-99.9,30.01,South,182,32.0,36.0,-999,-99.99,,,-99.99,,2013-02-19 07:32:00,
2013-02-19 01:42:00,64.0,-99.9,30.00,South,182,31.0,34.0,-999,-99.99,,,-99.99,,2013-02-19 07:42:00,
2013-02-19 01:52:00,64.0,-99.9,30.00,South,185,29.0,34.0,-999,-99.99,,,-99.99,,2013-02-19 07:52:00,
2013-02-19 02:02:00,64.0,-99.9,29.99,South,184,30.0,33.0,-999,-99.99,,,-99.99,,2013-02-19 08:02:00,
2013-02-19 02:12:00,64.0,-99.9,29.99,South,185,29.0,32.0,-999,-99.99,,,-99.99,,2013-02-19 08:12:00,
2013-02-19 02:22:00,65.0,-99.9,29.99,South,187,29.0,33.0,-999,-99.99,,,-99.99,,2013-02-19 08:22:00,
2013-02-19 02:32:00,65.0,-99.9,29.99,South,188,30.0,34.0,-999,-99.99,,,-99.99,,2013-02-19 08:32:00,
2013-02-19 02:42:00,65.0,-99.9,29.98,South,187,28.0,32.0,-999,-99.99,,,-99.99,,2013-02-19 08:42:00,
2013-02-19 02:52:00,65.0,-99.9,29.99,SSW,194,29.0,32.0,-999,-99.99,,,-99.99,,2013-02-19 08:52:00,
2013-02-19 03:02:00,65.0,-99.9,29.98,SSW,192,30.0,32.0,-999,-99.99,,,-99.99,,2013-02-19 09:02:00,
2013-02-19 03:11:00,65.0,-99.9,29.99,SSW,199,28.0,30.0,-999,-99.99,,,-99.99,,2013-02-19 09:11:00,
2013-02-19 03:22:00,65.0,-99.9,29.98,SSW,204,27.0,32.0,-999,-99.99,,,-99.99,,2013-02-19 09:22:00,
2013-02-19 03:32:00,65.0,-99.9,29.99,SSW,213,30.0,32.0,-999,-99.99,,,-99.99,,2013-02-19 09:32:00,
2013-02-19 03:42:00,65.0,-99.9,29.99,SSW,212,31.0,39.0,-999,-99.99,,,-99.99,,2013-02-19 09:42:00,
2013-02-19 03:53:00,64.0,-99.9,29.99,SSW,210,30.0,34.0,-999,-99.99,,,-99.99,,2013-02-19 09:53:00,
2013-02-19 04:02:00,64.0,-99.9,29.98,SSW,207,28.0,32.0,-999,-99.99,,,-99.99,,2013-02-19 10:02:00,
2013-02-19 04:11:00,64.0,-99.9,29.99,SSW,207,26.0,28.0,-999,-99.99,,,-99.99,,2013-02-19 10:11:00,
2013-02-19 04:22:00,64.0,-99.9,29.99,SSW,211,28.0,30.0,-999,-99.99,,,-99.99,,2013-02-19 10:22:00,
2013-02-19 04:32:00,64.0,-99.9,29.99,North,-999,-999.0,-999.0,-999,-99.99,,,-99.99,,2013-02-19 10:32:00,
2013-02-19 04:42:00,64.0,-99.9,29.99,North,-999,-999.0,-999.0,-999,-99.99,,,-99.99,,2013-02-19 10:42:00,
2013-02-19 04:52:00,63.0,-99.9,30.00,SW,226,26.0,28.0,-999,-99.99,,,-99.99,,2013-02-19 10:52:00,
2013-02-19 05:02:00,63.0,-99.9,29.99,North,-999,-999.0,-999.0,-999,-99.99,,,-99.99,,2013-02-19 11:02:00,
2013-02-19 05:12:00,62.0,-99.9,30.00,WSW,239,29.0,33.0,-999,-99.99,,,-99.99,,2013-02-19 11:12:00,
2013-02-19 05:22:00,62.0,-99.9,30.00,SW,226,26.0,29.0,-999,-99.99,,,-99.99,,2013-02-19 11:22:00,
2013-02-19 05:32:00,62.0,-99.9,30.01,WSW,251,23.0,25.0,-999,-99.99,,,-99.99,,2013-02-19 11:32:00,
2013-02-19 05:42:00,60.0,-99.9,30.02,North,-999,-999.0,-999.0,-999,-99.99,,,-99.99,,2013-02-19 11:42:00,
2013-02-19 05:52:00,59.0,-99.9,30.02,West,273,12.0,16.0,-999,-99.99,,,-99.99,,2013-02-19 11:52:00,
2013-02-19 06:02:00,60.0,-99.9,30.01,North,-999,-999.0,-999.0,-999,-99.99,,,-99.99,,2013-02-19 12:02:00,
2013-02-19 06:12:00,59.0,-99.9,30.01,North,-999,-999.0,-999.0,-999,-99.99,,,-99.99,,2013-02-19 12:12:00,
2013-02-19 06:22:00,59.0,-99.9,30.02,NW,317,15.0,20.0,-999,-99.99,,,-99.99,,2013-02-19 12:22:00,
2013-02-19 06:33:00,60.0,-99.9,30.02,WNW,303,14.0,19.0,-999,-99.99,,,-99.99,,2013-02-19 12:33:00,
2013-02-19 06:42:00,60.0,-99.9,30.03,NW,311,14.0,15.0,-999,-99.99,,,-99.99,,2013-02-19 12:42:00,
2013-02-19 06:53:00,60.0,-99.9,30.03,NW,313,15.0,17.0,-999,-99.99,,,-99.99,,2013-02-19 12:53:00,
2013-02-19 07:02:00,59.0,-99.9,30.03,NW,314,14.0,15.0,-999,-99.99,,,-99.99,,2013-02-19 13:02:00,
2013-02-19 07:11:00,59.0,-99.9,30.03,NW,319,15.0,16.0,-999,-99.99,,,-99.99,,2013-02-19 13:11:00,
2013-02-19 07:22:00,59.0,-99.9,30.04,NW,321,15.0,17.0,-999,-99.99,,,-99.99,,2013-02-19 13:22:00,
2013-02-19 07:32:00,60.0,-99.9,30.04,WNW,299,15.0,16.0,-999,-99.99,,,-99.99,,2013-02-19 13:32:00,
2013-02-19 07:42:00,60.0,-99.9,30.04,NW,317,13.0,14.0,-999,-99.99,,,-99.99,,2013-02-19 13:42:00,
2013-02-19 07:52:00,60.0,-99.9,30.06,NW,307,14.0,15.0,-999,-99.99,,,-99.99,,2013-02-19 13:52:00,
2013-02-19 08:02:00,60.0,-99.9,30.06,NW,314,16.0,17.0,-999,-99.99,,,-99.99,,2013-02-19 14:02:00,
2013-02-19 08:12:00,60.0,-99.9,30.07,NW,309,14.0,15.0,-999,-99.99,,,-99.99,,2013-02-19 14:12:00,
2013-02-19 08:22:00,60.0,-99.9,30.07,NW,321,16.0,18.0,-999,-99.99,,,-99.99,,2013-02-19 14:22:00,
2013-02-19 08:33:00,60.0,-99.9,30.07,NW,319,15.0,15.0,-999,-99.99,,,-99.99,,2013-02-19 14:33:00,
2013-02-19 08:42:00,60.0,-99.9,30.07,NW,318,15.0,16.0,-999,-99.99,,,-99.99,,2013-02-19 14:42:00,
2013-02-19 08:52:00,60.0,-99.9,30.08,NW,326,15.0,16.0,-999,-99.99,,,-99.99,,2013-02-19 14:52:00,
2013-02-19 09:02:00,59.0,-99.9,30.08,NNW,330,15.0,16.0,-999,-99.99,,,-99.99,,2013-02-19 15:02:00,
2013-02-19 09:11:00,59.0,-99.9,30.09,NNW,335,15.0,17.0,-999,-99.99,,,-99.99,,2013-02-19 15:11:00,
2013-02-19 09:22:00,59.0,-99.9,30.09,NNW,338,17.0,18.0,-999,-99.99,,,-99.99,,2013-02-19 15:22:00,
2013-02-19 09:32:00,59.0,-99.9,30.10,NNW,342,16.0,16.0,-999,-99.99,,,-99.99,,2013-02-19 15:32:00,
2013-02-19 09:42:00,59.0,-99.9,30.10,NNW,346,17.0,18.0,-999,-99.99,,,-99.99,,2013-02-19 15:42:00,
2013-02-19 09:52:00,59.0,-99.9,30.10,North,357,18.0,19.0,-999,-99.99,,,-99.99,,2013-02-19 15:52:00,
2013-02-19 10:02:00,59.0,-99.9,30.11,North,357,18.0,20.0,-999,-99.99,,,-99.99,,2013-02-19 16:02:00,
2013-02-19 10:12:00,59.0,-99.9,30.11,North,355,18.0,20.0,-999,-99.99,,,-99.99,,2013-02-19 16:12:00,
2013-02-19 10:22:00,59.0,-99.9,30.11,North,358,19.0,22.0,-999,-99.99,,,-99.99,,2013-02-19 16:22:00,
2013-02-19 10:32:00,59.0,-99.9,30.12,North,355,18.0,20.0,-999,-99.99,,,-99.99,,2013-02-19 16:32:00,
2013-02-19 10:42:00,58.0,-99.9,30.12,North,357,17.0,19.0,-999,-99.99,,,-99.99,,2013-02-19 16:42:00,
2013-02-19 10:52:00,59.0,-99.9,30.12,North,359,17.0,18.0,-999,-99.99,,,-99.99,,2013-02-19 16:52:00,
2013-02-19 11:01:00,59.0,-99.9,30.12,North,349,17.0,17.0,-999,-99.99,,,-99.99,,2013-02-19 17:01:00,
2013-02-19 11:11:00,59.0,-99.9,30.13,North,1,16.0,17.0,-999,-99.99,,,-99.99,,2013-02-19 17:11:00,
2013-02-19 11:21:00,59.0,-99.9,30.13,North,4,15.0,16.0,-999,-99.99,,,-99.99,,2013-02-19 17:21:00,
2013-02-19 11:32:00,59.0,-99.9,30.14,North,8,15.0,16.0,-999,-99.99,,,-99.99,,2013-02-19 17:32:00,
2013-02-19 11:42:00,59.0,-99.9,30.13,NNE,15,14.0,14.0,-999,-99.99,,,-99.99,,2013-02-19 17:42:00,
2013-02-19 11:52:00,59.0,-99.9,30.13,NNE,25,12.0,13.0,-999,-99.99,,,-99.99,,2013-02-19 17:52:00,
2013-02-19 12:02:00,59.0,-99.9,30.13,NNE,27,12.0,13.0,-999,-99.99,,,-99.99,,2013-02-19 18:02:00,
2013-02-19 12:11:00,60.0,-99.9,30.13,NNE,25,12.0,14.0,-999,-99.99,,,-99.99,,2013-02-19 18:11:00,
2013-02-19 12:22:00,59.0,-99.9,30.12,NNE,24,14.0,15.0,-999,-99.99,,,-99.99,,2013-02-19 18:22:00,
2013-02-19 12:32:00,59.0,-99.9,30.12,NNE,23,16.0,17.0,-999,-99.99,,,-99.99,,2013-02-19 18:32:00,
2013-02-19 12:42:00,59.0,-99.9,30.11,NNE,23,19.0,20.0,-999,-99.99,,,-99.99,,2013-02-19 18:42:00,
2013-02-19 12:52:00,59.0,-99.9,30.11,NNE,24,19.0,20.0,-999,-99.99,,,-99.99,,2013-02-19 18:52:00,
2013-02-19 13:01:00,59.0,-99.9,30.11,NNE,28,18.0,19.0,-999,-99.99,,,-99.99,,2013-02-19 19:01:00,
2013-02-19 13:11:00,59.0,-99.9,30.11,NNE,26,18.0,19.0,-999,-99.99,,,-99.99,,2013-02-19 19:11:00,
2013-02-19 13:22:00,59.0,-99.9,30.11,NNE,28,17.0,18.0,-999,-99.99,,,-99.99,,2013-02-19 19:22:00,
2013-02-19 13:32:00,60.0,-99.9,30.10,NNE,29,17.0,18.0,-999,-99.99,,,-99.99,,2013-02-19 19:32:00,
2013-02-19 13:42:00,60.0,-99.9,30.10,NNE,32,15.0,16.0,-999,-99.99,,,-99.99,,2013-02-19 19:42:00,
2013-02-19 13:52:00,61.0,-99.9,30.10,NE,36,13.0,14.0,-999,-99.99,,,-99.99,,2013-02-19 19:52:00,
2013-02-19 14:02:00,60.0,-99.9,30.10,NNE,33,12.0,14.0,-999,-99.99,,,-99.99,,2013-02-19 20:02:00,
2013-02-19 14:12:00,60.0,-99.9,30.10,NNE,33,13.0,15.0,-999,-99.99,,,-99.99,,2013-02-19 20:12:00,
2013-02-19 14:22:00,60.0,-99.9,30.10,NNE,28,14.0,16.0,-999,-99.99,,,-99.99,,2013-02-19 20:22:00,
2013-02-19 14:32:00,60.0,-99.9,30.10,NNE,27,16.0,17.0,-999,-99.99,,,-99.99,,2013-02-19 20:32:00,
2013-02-19 14:42:00,60.0,-99.9,30.10,NNE,22,17.0,18.0,-999,-99.99,,,-99.99,,2013-02-19 20:42:00,
2013-02-19 14:52:00,60.0,-99.9,30.10,NNE,24,17.0,19.0,-999,-99.99,,,-99.99,,2013-02-19 20:52:00,
2013-02-19 15:02:00,60.0,-99.9,30.10,NNE,22,20.0,21.0,-999,-99.99,,,-99.99,,2013-02-19 21:02:00,
2013-02-19 15:11:00,60.0,-99.9,30.10,NNE,24,19.0,20.0,-999,-99.99,,,-99.99,,2013-02-19 21:11:00,
2013-02-19 15:22:00,60.0,-99.9,30.10,NNE,24,19.0,20.0,-999,-99.99,,,-99.99,,2013-02-19 21:22:00,
2013-02-19 15:32:00,60.0,-99.9,30.10,NNE,27,18.0,20.0,-999,-99.99,,,-99.99,,2013-02-19 21:32:00,
2013-02-19 15:42:00,61.0,-99.9,30.10,NNE,27,21.0,22.0,-999,-99.99,,,-99.99,,2013-02-19 21:42:00,
2013-02-19 15:52:00,60.0,-99.9,30.10,NNE,27,17.0,19.0,-999,-99.99,,,-99.99,,2013-02-19 21:52:00,
2013-02-19 16:02:00,60.0,-99.9,30.10,NNE,23,17.0,19.0,-999,-99.99,,,-99.99,,2013-02-19 22:02:00,
2013-02-19 16:11:00,61.0,-99.9,30.10,NNE,22,21.0,23.0,-999,-99.99,,,-99.99,,2013-02-19 22:11:00,
2013-02-19 16:22:00,61.0,-99.9,30.10,NNE,22,21.0,23.0,-999,-99.99,,,-99.99,,2013-02-19 22:22:00,
2013-02-19 16:32:00,61.0,-99.9,30.10,NNE,22,21.0,23.0,-999,-99.99,,,-99.99,,2013-02-19 22:32:00,
2013-02-19 16:42:00,61.0,-99.9,30.10,NNE,22,21.0,23.0,-999,-99.99,,,-99.99,,2013-02-19 22:42:00,
2013-02-19 16:52:00,61.0,-99.9,30.10,NNE,22,21.0,23.0,-999,-99.99,,,-99.99,,2013-02-19 22:52:00,
2013-02-19 18:42:00,60.0,-99.9,30.13,North,9,16.0,17.0,-999,-99.99,,,-99.99,,2013-02-20 00:42:00,
2013-02-19 18:52:00,59.0,-99.9,30.13,NNE,15,14.0,15.0,-999,-99.99,,,-99.99,,2013-02-20 00:52:00,
2013-02-19 19:02:00,59.0,-99.9,30.13,NNE,16,16.0,16.0,-999,-99.99,,,-99.99,,2013-02-20 01:02:00,
2013-02-19 19:11:00,59.0,-99.9,30.14,North,10,15.0,16.0,-999,-99.99,,,-99.99,,2013-02-20 01:11:00,
2013-02-19 19:22:00,59.0,-99.9,30.14,NNE,16,13.0,14.0,-999,-99.99,,,-99.99,,2013-02-20 01:22:00,
2013-02-19 19:32:00,58.0,-99.9,30.15,NNE,25,9.0,10.0,-999,-99.99,,,-99.99,,2013-02-20 01:32:00,
2013-02-19 19:42:00,58.0,-99.9,30.15,NNE,32,11.0,12.0,-999,-99.99,,,-99.99,,2013-02-20 01:42:00,
2013-02-19 19:52:00,58.0,-99.9,30.15,NNE,26,10.0,11.0,-999,-99.99,,,-99.99,,2013-02-20 01:52:00,
2013-02-19 20:02:00,58.0,-99.9,30.15,NE,36,12.0,13.0,-999,-99.99,,,-99.99,,2013-02-20 02:02:00,
2013-02-19 20:11:00,58.0,-99.9,30.16,NNE,13,12.0,14.0,-999,-99.99,,,-99.99,,2013-02-20 02:11:00,
2013-02-19 20:22:00,58.0,-99.9,30.16,North,10,11.0,13.0,-999,-99.99,,,-99.99,,2013-02-20 02:22:00,
2013-02-19 20:32:00,58.0,-99.9,30.16,North,8,12.0,15.0,-999,-99.99,,,-99.99,,2013-02-20 02:32:00,
2013-02-19 20:42:00,58.0,-99.9,30.16,North,10,17.0,18.0,-999,-99.99,,,-99.99,,2013-02-20 02:42:00,
2013-02-19 20:52:00,58.0,-99.9,30.17,North,11,16.0,17.0,-999,-99.99,,,-99.99,,2013-02-20 02:52:00,
2013-02-19 21:02:00,58.0,-99.9,30.17,North,11,17.0,19.0,-999,-99.99,,,-99.99,,2013-02-20 03:02:00,
2013-02-19 21:12:00,58.0,-99.9,30.17,NNE,13,19.0,21.0,-999,-99.99,,,-99.99,,2013-02-20 03:12:00,
2013-02-19 21:22:00,57.0,-99.9,30.16,NNE,19,21.0,23.0,-999,-99.99,,,-99.99,,2013-02-20 03:22:00,
2013-02-19 21:32:00,57.0,-99.9,30.17,NNE,21,19.0,22.0,-999,-99.99,,,-99.99,,2013-02-20 03:32:00,
2013-02-19 21:42:00,57.0,-99.9,30.17,NNE,19,19.0,21.0,-999,-99.99,,,-99.99,,2013-02-20 03:42:00,
2013-02-19 21:52:00,57.0,-99.9,30.18,NNE,21,20.0,21.0,-999,-99.99,,,-99.99,,2013-02-20 03:52:00,
2013-02-19 22:02:00,56.0,-99.9,30.18,NNE,28,16.0,19.0,-999,-99.99,,,-99.99,,2013-02-20 04:02:00,
2013-02-19 22:11:00,56.0,-99.9,30.18,NE,34,13.0,15.0,-999,-99.99,,,-99.99,,2013-02-20 04:11:00,
2013-02-19 22:22:00,56.0,-99.9,30.19,NNE,33,15.0,17.0,-999,-99.99,,,-99.99,,2013-02-20 04:22:00,
2013-02-19 22:32:00,56.0,-99.9,30.19,NNE,29,16.0,18.0,-999,-99.99,,,-99.99,,2013-02-20 04:32:00,
2013-02-19 22:42:00,55.0,-99.9,30.19,NNE,29,16.0,17.0,-999,-99.99,,,-99.99,,2013-02-20 04:42:00,
2013-02-19 22:52:00,55.0,-99.9,30.18,NNE,30,17.0,19.0,-999,-99.99,,,-99.99,,2013-02-20 04:52:00,
2013-02-19 23:02:00,55.0,-99.9,30.18,NNE,28,17.0,18.0,-999,-99.99,,,-99.99,,2013-02-20 05:02:00,
2013-02-19 23:12:00,55.0,-99.9,30.19,NNE,31,17.0,19.0,-999,-99.99,,,-99.99,,2013-02-20 05:12:00,
2013-02-19 23:22:00,54.0,-99.9,30.19,NE,36,14.0,17.0,-999,-99.99,,,-99.99,,2013-02-20 05:22:00,
2013-02-19 23:32:00,54.0,-99.9,30.19,NE,34,16.0,18.0,-999,-99.99,,,-99.99,,2013-02-20 05:32:00,
2013-02-19 23:43:00,54.0,-99.9,30.19,NNE,33,17.0,19.0,-999,-99.99,,,-99.99,,2013-02-20 05:43:00,
2013-02-19 23:52:00,54.0,-99.9,30.19,NE,35,14.0,16.0,-999,-99.99,,,-99.99,,2013-02-20 05:52:00,